This is the latest recevied weather packets stored in our database for station/object KC3WWU. If no packets are shown the sender has not sent any weather packets the latest 10 day(s).
| Time | Temp. | Humidity | Pressure | Rain* | Wind** | Luminosity | Snow |
|---|---|---|---|---|---|---|---|
| 1777926363 | 20° C | 49% | 1005.9 hPa | 0 mm | - | 628 W/m² | - |
| 1777926060 | 20° C | 51% | 1005.8 hPa | 0 mm | - | 142 W/m² | - |
| 1777925756 | 20.56° C | 50% | 1005.8 hPa | 0 mm | - | 165 W/m² | - |
| 1777925455 | 20° C | 49% | 1005.9 hPa | 0 mm | - | 240 W/m² | - |
| 1777925150 | 20° C | 50% | 1006 hPa | 0 mm | - | 156 W/m² | - |
| 1777924848 | 20.56° C | 47% | 1005.9 hPa | 0 mm | - | 166 W/m² | - |
| 1777924543 | 21.11° C | 47% | 1006 hPa | 0 mm | - | 132 W/m² | - |
| 1777924240 | 21.11° C | 48% | 1006.1 hPa | 0 mm | - | 659 W/m² | - |
| 1777923937 | 20.56° C | 48% | 1006.4 hPa | 0 mm | - | 183 W/m² | - |
| 1777923632 | 21.11° C | 47% | 1006.1 hPa | 0 mm | - | 197 W/m² | - |
| 1777923329 | 20.56° C | 48% | 1006.1 hPa | 0 mm | - | 731 W/m² | - |
| 1777923028 | 21.11° C | 46% | 1006.4 hPa | 0 mm | - | 122 W/m² | - |
| 1777922726 | 20.56° C | 46% | 1006.6 hPa | 0 mm | - | 690 W/m² | - |
| 1777922424 | 21.11° C | 47% | 1006.4 hPa | 0 mm | - | 124 W/m² | - |
| 1777922121 | 21.67° C | 46% | 1006.3 hPa | 0 mm | - | 688 W/m² | - |
| 1777921817 | 21.11° C | 47% | 1007 hPa | 0 mm | - | 695 W/m² | - |
| 1777921514 | 20.56° C | 47% | 1007 hPa | 0 mm | - | 734 W/m² | - |
| 1777921210 | 20° C | 48% | 1006.7 hPa | 0 mm | - | 649 W/m² | - |
| 1777920907 | 21.11° C | 46% | 1007.1 hPa | 0 mm | - | 743 W/m² | - |
| 1777920603 | 21.67° C | 48% | 1006.8 hPa | 0 mm | - | 215 W/m² | - |
| 1777920299 | 21.11° C | 44% | 1006.8 hPa | 0 mm | - | 744 W/m² | - |
| 1777919995 | 20.56° C | 48% | 1007.1 hPa | 0 mm | - | 634 W/m² | - |
| 1777919692 | 20.56° C | 48% | 1007 hPa | 0 mm | - | 735 W/m² | - |
| 1777919390 | 21.11° C | 47% | 1007.1 hPa | 0 mm | - | 731 W/m² | - |
| 1777919086 | 21.11° C | 47% | 1007 hPa | 0 mm | - | 733 W/m² | - |
* Rain latest hour (hover to see other rain measurements)
** Current wind speed in m/s (hover to see current wind gust speed)